Weather reports worldwide

Advertisment
Visby Flygplats, Sweden (2590): temperature & dewpoint: 14.10.2019 04:00:00 - 20.10.2019 04:00:00 (CEST)Visby Flygplats, Sweden (2590): wind speed & gusts: 14.10.2019 04:00:00 - 20.10.2019 04:00:00 (CEST)Visby Flygplats, Sweden (2590): wind direction: 14.10.2019 04:00:00 - 20.10.2019 04:00:00 (CEST)Visby Flygplats, Sweden (2590): reduced air pressure: 14.10.2019 04:00:00 - 20.10.2019 04:00:00 (CEST)Visby Flygplats, Sweden (2590): visibility: 14.10.2019 04:00:00 - 20.10.2019 04:00:00 (CEST)Visby Flygplats, Sweden (2590): precipitation: 14.10.2019 04:00:00 - 20.10.2019 04:00:00 (CEST)
Date & Time tt [°C] td [°C] ff [km/h] ff [kn] fx [km/h] fx [kn] dd ppp [hPa] vv [km] rr [mm]
20.10.2019 04:00:00 9,0 9,0 11 6 - - SE - 10 -
20.10.2019 03:00:00 8,7 8,3 8 4 14 8 SSE 1011,3 10 0,0
20.10.2019 02:00:00 8,1 7,5 9 5 14 8 SE 1011,3 10 0,0
20.10.2019 01:00:00 8,2 7,6 8 4 11 6 SSE 1011,7 10 0,0
20.10.2019 00:00:00 8,4 7,5 9 5 14 8 SSE 1011,5 10 0,0
19.10.2019 23:00:00 9,4 8,3 13 7 18 10 S 1011,4 10 0,0
19.10.2019 22:00:00 9,3 8,4 13 7 18 10 S 1011,2 10 0,0
19.10.2019 21:00:00 9,7 8,5 15 8 25 14 S 1010,9 10 0,0
19.10.2019 20:00:00 10,3 8,9 18 10 25 14 S 1010,7 10 0,0
19.10.2019 19:00:00 10,6 9,4 18 10 32 18 S 1010,4 10 0,0
19.10.2019 18:00:00 10,6 9,5 22 12 32 18 S 1010,1 10 0,0
19.10.2019 17:00:00 11,1 9,4 26 14 36 19 SSW 1009,6 10 0,0
19.10.2019 16:00:00 11,3 9,4 24 13 32 18 SSW 1009,5 10 0,0
19.10.2019 15:00:00 11,5 9,6 26 14 36 19 SSW 1009,4 10 0,0
19.10.2019 14:00:00 11,9 9,5 24 13 36 19 SSW 1008,8 10 0,0
19.10.2019 13:00:00 11,6 9,2 22 12 40 21 SW 1008,7 10 0,0
19.10.2019 12:00:00 11,4 9,0 26 14 40 21 SW 1008,6 10 0,0
19.10.2019 11:00:00 11,1 8,8 24 13 36 19 SW 1008,2 10 0,0
19.10.2019 10:00:00 10,9 8,5 24 13 40 21 SW 1007,7 10 0,0
19.10.2019 09:00:00 10,5 8,4 24 13 32 18 SW 1007,1 10 0,0
19.10.2019 08:00:00 9,7 8,5 22 12 32 18 SW 1006,7 10 0,0
19.10.2019 07:00:00 9,4 8,3 24 13 32 18 SW 1006,0 10 0,0
19.10.2019 06:00:00 9,9 8,7 28 15 40 21 SW 1005,5 10 0,0
19.10.2019 05:00:00 10,0 8,9 29 16 43 23 SW 1005,2 10 0,0
19.10.2019 04:00:00 10,8 9,7 22 12 40 21 SSW 1004,4 10 2,0
19.10.2019 03:00:00 12,6 11,2 24 13 32 18 S 1004,4 10 0,0
19.10.2019 02:00:00 12,0 11,4 18 10 25 14 SE 1004,5 5 0,0
19.10.2019 01:00:00 11,9 11,3 16 9 25 14 SSE 1005,4 6 0,0
19.10.2019 00:00:00 12,1 11,3 15 8 29 16 S 1006,1 10 0,0
18.10.2019 23:00:00 12,1 11,5 16 9 25 14 S 1006,6 10 0,0
18.10.2019 22:00:00 12,1 11,6 21 11 29 16 S 1007,3 9 0,0
18.10.2019 21:00:00 12,0 11,5 18 10 25 14 S 1007,4 4,0 0,0
18.10.2019 20:00:00 12,3 11,8 16 9 25 14 SSE 1007,9 4,7 0,0
18.10.2019 19:00:00 12,1 11,6 16 9 25 14 SE 1008,2 8 0,0
18.10.2019 18:00:00 12,3 11,8 15 8 22 12 SE 1008,8 6 0,3
18.10.2019 17:00:00 12,8 12,2 15 8 22 12 SSE 1009,0 10 0,0
18.10.2019 16:00:00 13,0 12,2 15 8 22 12 SE 1009,3 10 0,0
18.10.2019 15:00:00 13,0 12,0 11 6 - - SE - 10 -
18.10.2019 14:00:00 12,7 11,8 15 8 18 10 S 1010,2 10 0,0
18.10.2019 13:00:00 12,4 11,6 13 7 18 10 S 1010,6 10 0,0
18.10.2019 12:00:00 12,1 11,5 13 7 18 10 S 1011,2 10 0,0
18.10.2019 11:00:00 12,0 11,7 15 8 18 10 SSW 1011,5 10 0,0
18.10.2019 10:00:00 11,1 10,8 9 5 14 8 S 1011,2 2,4 0,0
18.10.2019 09:00:00 10,1 9,8 8 4 11 6 S 1011,2 10 0,0
18.10.2019 08:00:00 9,8 9,5 8 4 18 10 SW 1011,1 8 0,0
18.10.2019 07:00:00 11,4 11,1 18 10 25 14 WSW 1010,6 10 0,0
18.10.2019 06:00:00 11,5 11,3 18 10 25 14 SW 1010,7 0,5 0,0
18.10.2019 05:00:00 11,4 11,1 13 7 18 10 SW 1010,7 0,5 0,0
18.10.2019 04:00:00 11,5 11,2 11 6 18 10 SW 1010,6 7 0,0
18.10.2019 03:00:00 11,3 11,0 11 6 14 8 SSW 1010,7 2,5 0,0
18.10.2019 02:00:00 10,9 10,6 8 4 14 8 S 1010,7 0,3 0,0
18.10.2019 01:00:00 10,6 10,3 9 5 14 8 SSE 1010,8 2,4 0,0
18.10.2019 00:00:00 10,2 9,9 11 6 14 8 SE 1010,8 2,5 0,0
17.10.2019 23:00:00 9,8 9,3 11 6 14 8 ESE 1011,0 5 0,0
17.10.2019 22:00:00 9,5 9,0 11 6 14 8 SE 1011,5 8 0,0
17.10.2019 21:00:00 9,3 8,8 11 6 14 8 SSE 1011,2 10 0,0
17.10.2019 20:00:00 9,1 8,5 9 5 14 8 SSE 1011,4 10 0,0
17.10.2019 19:00:00 8,7 8,1 5 3 7 4 SE 1011,5 10 0,0
17.10.2019 18:00:00 9,1 8,3 5 3 11 6 WSW 1011,3 10 0,0
17.10.2019 17:00:00 9,2 8,3 9 5 18 10 WSW 1011,1 10 0,0
17.10.2019 16:00:00 9,2 8,4 13 7 18 10 WSW 1010,8 10 0,0
17.10.2019 15:00:00 9,3 8,5 13 7 22 12 W 1010,5 10 0,0
17.10.2019 14:00:00 9,3 8,8 11 6 18 10 WNW 1010,1 10 0,0
17.10.2019 13:00:00 9,2 8,7 15 8 22 12 NW 1009,5 10 0,0
17.10.2019 12:00:00 8,9 8,6 16 9 25 14 NW 1009,1 4,2 0,0
17.10.2019 11:00:00 8,9 8,6 21 11 32 18 NW 1008,3 5 0,0
17.10.2019 10:00:00 8,9 8,8 22 12 36 19 NW 1007,6 10 0,0
17.10.2019 09:00:00 8,8 8,7 24 13 36 19 NNW 1006,5 6 0,0
17.10.2019 08:00:00 9,1 9,0 28 15 36 19 NNW 1005,4 0,4 0,0
17.10.2019 07:00:00 9,6 9,5 24 13 32 18 NNW 1004,7 0,4 0,0
17.10.2019 06:00:00 10,3 10,1 22 12 32 18 N 1003,6 0,5 0,0
17.10.2019 05:00:00 10,5 10,3 21 11 32 18 N 1003,4 0,1 0,0
17.10.2019 04:00:00 10,8 10,5 18 10 25 14 N 1002,8 0,1 0,0
17.10.2019 03:00:00 11,0 10,7 11 6 14 8 N 1002,7 0,1 0,0
17.10.2019 02:00:00 11,6 11,3 5 3 11 6 NNE 1002,6 0,1 0,0
17.10.2019 01:00:00 11,7 11,4 8 4 14 8 NE 1002,3 0,2 0,0
17.10.2019 00:00:00 11,7 11,4 8 4 14 8 NE 1002,3 0,3 0,0
16.10.2019 23:00:00 11,8 11,5 8 4 11 6 NE 1002,5 0,4 0,0
16.10.2019 22:00:00 11,8 11,5 8 4 14 8 ENE 1002,7 0,4 0,0
16.10.2019 21:00:00 11,6 11,3 8 4 14 8 ENE 1002,6 0,2 0,0
16.10.2019 20:00:00 11,5 11,2 11 6 14 8 NE 1002,8 0,2 0,0
16.10.2019 19:00:00 11,6 11,3 11 6 18 10 NE 1003,2 0,3 0,0
16.10.2019 18:00:00 11,7 11,4 13 7 18 10 ENE 1003,3 0,4 0,0
16.10.2019 17:00:00 12,0 11,5 16 9 22 12 ENE 1003,5 0,8 0,0
16.10.2019 16:00:00 12,4 11,9 15 8 25 14 E 1003,6 2,3 0,0
16.10.2019 15:00:00 12,6 12,1 18 10 25 14 E 1003,8 2,6 0,0
16.10.2019 14:00:00 12,6 12,1 18 10 29 16 E 1003,9 3,4 0,0
16.10.2019 13:00:00 12,9 12,4 21 11 25 14 E 1004,2 6 0,0
16.10.2019 12:00:00 12,9 12,6 18 10 22 12 E 1004,7 4,5 0,0
16.10.2019 11:00:00 12,2 11,9 13 7 22 12 E 1005,1 0,9 0,0
16.10.2019 10:00:00 12,0 11,7 11 6 18 10 E 1005,5 0,7 0,0
16.10.2019 09:00:00 11,7 11,2 11 6 18 10 ENE 1005,7 0,5 0,0
16.10.2019 08:00:00 11,6 11,1 8 4 11 6 E 1006,2 1,5 0,0
16.10.2019 07:00:00 11,5 10,9 8 4 14 8 E 1006,2 6 0,0
16.10.2019 06:00:00 11,5 10,9 11 6 18 10 E 1006,2 6 0,0
16.10.2019 05:00:00 11,5 10,9 11 6 22 12 E 1006,6 10 0,0
16.10.2019 04:00:00 11,4 10,8 13 7 18 10 E 1007,1 10 0,0
16.10.2019 03:00:00 11,4 10,8 13 7 22 12 E 1007,7 10 0,0
16.10.2019 02:00:00 10,9 10,3 15 8 22 12 E 1008,2 10 0,0
16.10.2019 01:00:00 10,3 9,5 11 6 18 10 E 1009,1 10 0,0
16.10.2019 00:00:00 10,6 9,8 16 9 25 14 ESE 1009,6 10 0,0
15.10.2019 23:00:00 11,0 9,9 22 12 29 16 ESE 1010,1 10 0,0
15.10.2019 22:00:00 11,1 9,8 28 15 36 19 ESE 1010,6 10 0,0
15.10.2019 21:00:00 10,8 9,7 29 16 40 21 ESE 1010,8 10 0,0
15.10.2019 20:00:00 11,0 9,6 29 16 40 21 ESE 1011,4 10 0,0
15.10.2019 19:00:00 11,0 9,6 26 14 32 18 E 1012,2 10 0,0
15.10.2019 18:00:00 10,9 9,3 24 13 32 18 ESE 1012,7 10 0,0
15.10.2019 17:00:00 11,2 9,6 26 14 36 19 ESE 1012,8 10 0,0
15.10.2019 16:00:00 11,8 10,2 26 14 32 18 ESE 1013,2 10 0,0
15.10.2019 15:00:00 11,4 10,5 18 10 25 14 ESE 1014,2 10 0,0
15.10.2019 14:00:00 11,0 9,8 18 10 32 18 ESE 1014,5 10 0,0
15.10.2019 13:00:00 10,6 8,9 16 9 25 14 ESE 1015,5 10 0,0
15.10.2019 12:00:00 9,9 8,2 22 12 32 18 ESE 1016,2 10 0,0
15.10.2019 11:00:00 9,8 7,6 21 11 29 16 ESE 1016,4 10 0,0
15.10.2019 10:00:00 9,8 7,2 21 11 32 18 ESE 1017,2 10 0,0
15.10.2019 09:00:00 9,6 7,2 24 13 29 16 ESE 1017,4 10 0,0
15.10.2019 08:00:00 9,6 6,5 16 9 29 16 E 1017,6 10 0,0
15.10.2019 07:00:00 9,1 7,2 11 6 18 10 E 1018,2 10 0,0
15.10.2019 06:00:00 8,8 6,9 11 6 18 10 ENE 1017,9 10 0,0
15.10.2019 05:00:00 8,6 6,7 13 7 14 8 ENE 1018,1 10 0,0
15.10.2019 04:00:00 8,4 6,5 11 6 14 8 ENE 1018,4 10 0,0
15.10.2019 03:00:00 8,6 6,9 11 6 14 8 NE 1018,2 10 0,0
15.10.2019 02:00:00 8,7 7,2 8 4 14 8 ENE 1018,0 10 0,0
15.10.2019 01:00:00 9,0 7,3 9 5 14 8 NE 1017,8 10 0,0
15.10.2019 00:00:00 9,0 7,4 9 5 11 6 NNE 1017,5 10 0,0
14.10.2019 23:00:00 8,7 7,2 8 4 11 6 NE 1016,9 10 0,0
14.10.2019 22:00:00 8,8 7,2 11 6 18 10 ENE 1016,1 10 0,0
14.10.2019 21:00:00 8,9 7,5 16 9 18 10 NE 1015,5 10 0,0
14.10.2019 20:00:00 9,0 8,1 15 8 22 12 NE 1014,7 10 0,0
14.10.2019 19:00:00 9,8 8,6 16 9 22 12 NNE 1013,3 10 0,0
14.10.2019 18:00:00 10,2 9,1 15 8 22 12 N 1011,6 10 0,0
14.10.2019 17:00:00 10,7 9,8 18 10 29 16 NW 1009,8 10 0,0
14.10.2019 16:00:00 12,0 9,9 16 9 29 16 W 1008,4 10 0,0
14.10.2019 15:00:00 12,9 9,7 26 14 36 19 WSW 1006,7 10 0,0
14.10.2019 14:00:00 12,8 9,6 28 15 40 21 WSW 1005,3 10 0,0
14.10.2019 13:00:00 12,7 9,7 31 17 47 25 WSW 1004,1 10 0,0
14.10.2019 12:00:00 13,0 9,8 34 18 47 25 SW 1003,1 10 0,0
14.10.2019 11:00:00 13,2 10,0 34 18 47 25 SW 1002,4 10 0,0
14.10.2019 10:00:00 14,0 10,6 35 19 50 27 SW 1001,5 10 0,0
14.10.2019 09:00:00 14,2 11,2 37 20 50 27 SW 1000,8 10 0,0
14.10.2019 08:00:00 13,7 11,7 31 17 50 27 SW 1000,7 10 0,0
14.10.2019 07:00:00 13,1 11,8 28 15 40 21 SW 1000,4 10 0,0
14.10.2019 06:00:00 13,0 12,4 24 13 36 19 SW 1000,5 10 0,0
14.10.2019 05:00:00 11,0 10,5 16 9 36 19 SE 1001,2 10 0,0
14.10.2019 04:00:00 10,4 9,8 24 13 36 19 SE 1002,2 10 0,0

tt = temperature
td = dewpoint
ff = wind speed
fx = gusts
dd = wind direction
ppp = reduced air pressure
vv = visibility
rr = precipitation

Next stations